Weather in Kochenyovo

Russia / Novosibirsk Oblast     55°01′17″N   82°12′27″E
temp.,
°C
wind,
m/s
gust,
m/s
humid.,
%
clouds,
%
prec.,
mm/h
press.,
hPa
HPBL,
m
27 february, sat
sat2701:00−25wsw61193100 0.1 1035563
04:00−25sw51093100 0.1 1035481
07:00−26sw4996100 0.1 1036366
10:00−25sw5994100 0.1 1036453
13:00−23wsw4791100 0.1 1037551
16:00−22wsw4690100 0.0 1037555
19:00−26sw3496100 0.1 103733
22:00−28sw349848 0.0 103832
28 february, sun
sun2801:00−30ssw349727 0.0 103839
04:00−31ssw349734 0.0 103830
07:00−30s349742 0.0 103839
10:00−28sse359666 0.0 1037102
13:00−23se479258 0.0 1034262
16:00−18se479197 0.0 1031397
19:00−17ese359599 0.0 1028126
22:00−14se499599 0.1 1025304
1 march, mon
mon101:00−13se5995100 0.4 1022324
04:00−11se61194100 0.4 1017382
07:00−8se51195100 1.5 1013505
10:00−6se61195100 1.6 1010547
13:000sw712100100 4.0 1007754
16:00+1sw71399100 1.3 1006746
19:000sw71297100 1.9 1005737
22:00−1wsw71296100 1.3 1006700
2 march, tue
tue201:00−5nw2394100 1.8 1007111
04:00−8wsw3895100 0.4 1010345
07:00−13wnw2296100 0.7 101351
10:00−14w349698 0.1 1016157
13:00−12w469099 0.2 1018511
16:00−12wsw4590100 0.1 1018532
19:00−16wsw2395100 0.1 101820
22:00−17sw229591 0.0 101820
3 march, wed
wed301:00−17ssw119696 0.1 101720
04:00−16e1197100 0.2 101620
07:00−16ene1297100 0.4 101522
10:00−15ne1196100 0.3 101579
13:00−13nnw1191100 0.7 1016236
16:00−12wsw1288100 0.2 1018346
19:00−13w229595 0.3 102026
22:00−16wsw339585 0.1 102239